Flag for Germany Weather past 2 weeks in Coburg, Bavaria, Germany

Now
60 °F

Overcast.


Feels Like: 60 °F
Forecast: 49 / 65 °F
Wind: 2 mph from Northwest

Location: Bamberg

Current Time: Sep 1, 2014 at 2:10:09 PM

Latest Report: Sep 1, 2014 at 1:00 PM


Visibility: 28 mi

Pressure: 30.10 "Hg

Humidity: 77%

Dew point: 53 °F

Location of CoburgLocation

Historic Weather in Coburg — Graph

°F

Coburg temperature yesterday

Maximum temperature yesterday: 61 °F (at 3:00 PM)
Minimum temperature yesterday: 53 °F (at 11:00 PM)
Average temperature yesterday: 58 °F

Past Weeks' High & Low Weather Summary

 TemperatureHumidityPressure
High74 °F (Aug 28, 5:00 PM)100% (Aug 19, 2:00 AM)30.15 "Hg (Aug 19, 2:00 AM)
Low41 °F (Aug 25, 6:00 AM)39% (Aug 22, 5:00 PM)29.67 "Hg (Aug 26, 9:00 AM)
Average57 °F82%29.98 "Hg
* Reported Aug 17 1:00 PM — Sep 1 1:00 PM, Coburg, Weather by CustomWeather, © 2014

Note: Actual official high and low records may vary slightly from our data, if they occured in-between our weather recording intervals... More about our weather records

Advertising

Coburg weather history for previous 24 hours

 ConditionsComfort  
Time TempWeatherWind HumidityBarometerVisibility
1:00 PM
Sep 1
60 °FOvercast.2 mph77%30.10 "Hg28 mi
12:00 PM61 °FPartly sunny.2 mph72%30.10 "Hg31 mi
11:00 AM59 °FOvercast.2 mph80%30.10 "Hg18 mi
10:00 AM55 °FPartly sunny.1 mph93%30.11 "Hg8 mi
9:00 AM53 °FPartly sunny.1 mph100%30.10 "Hg6 mi
8:00 AM49 °FScattered clouds.1 mph100%30.09 "Hg3 mi
7:00 AM47 °FSunny.1 mph100%30.07 "Hg1 mi
6:00 AM48 °FFog.1 mph100%30.06 "Hg3 mi
5:00 AM49 °FFog.1 mph100%30.05 "Hg4 mi
4:00 AM47 °FPassing clouds.1 mph100%30.05 "Hg5 mi
3:00 AM47 °FClear.1 mph100%30.03 "Hg1 mi
2:00 AM50 °FPassing clouds.1 mph100%30.02 "Hg1 mi
1:00 AM50 °FPassing clouds.1 mph100%30.01 "Hg0 mi
12:00 AM52 °FFog.1 mph100%30.00 "Hg2 mi
11:00 PM
Aug 31
53 °FFog.1 mph100%29.99 "Hg4 mi
10:00 PM55 °FOvercast.1 mph97%29.98 "Hg8 mi
9:00 PM56 °FDrizzle. Overcast.1 mph98%29.96 "Hg12 mi
8:00 PM58 °FRain. Scattered clouds.1 mph99%29.93 "Hg1 mi
7:00 PM58 °FLight rain. Scattered clouds.1 mph98%29.92 "Hg6 mi
6:00 PM57 °FLight rain. Low clouds.5 mph99%29.92 "Hg5 mi
5:00 PM59 °FLight rain. Overcast.2 mph96%29.91 "Hg6 mi
4:00 PM60 °FPartly sunny.2 mph95%29.91 "Hg34 mi
3:00 PM61 °FOvercast.3 mph92%29.92 "Hg37 mi
2:00 PM61 °FPartly sunny.2 mph95%29.94 "Hg25 mi
Weather by CustomWeather, © 2014

See weather overviewHow to use our weather pages